Regional Weather Roundup
Issued by NWS

Home | Current Version | Previous Version | Graphics & Text | Print | Product List | Glossary Off
Versions: 1 2 3 4 5 6 7 8 9 10 11 12 13 14 15 16 17 18 19 20 21 22 23 24 25 26 27 28 29 30 31 32 33 34 35 36 37 38 39 40 41 42 43 44 45 46 47 48 49 50

000
ASUS43 KDMX 200407
RWRIA

WEATHER ROUNDUP FOR IOWA
NATIONAL WEATHER SERVICE DES MOINES IA
1100 PM CDT TUE AUG 19 2014

NOTE: "FAIR" INDICATES FEW OR NO CLOUDS BELOW 12,000 FEET WITH NO
SIGNIFICANT WEATHER AND/OR OBSTRUCTIONS TO VISIBILITY.

* - THESE STATIONS ARE NOT NWS STATIONS...THUS NOT UNDER NWS
QUALITY CONTROL.  THEY ALSO DO NOT REPORT WEATHER SUCH
AS PRECIPITATION OR FOG.

IAZ001>003-012>014-020>022-031>034-043>046-200500-
   NORTHWEST IOWA

CITY           SKY/WX    TMP DP  RH WIND       PRES   REMARKS
CARROLL *      CLOUDY    64  64 100 CALM      29.83R
CHEROKEE *     CLEAR     66  64  94 CALM      29.84R
DENISON *      CLEAR     68  66  94 CALM      29.81S
LE MARS *      CLEAR     68  66  94 CALM      29.83R
ORANGE CITY *  CLEAR     73  63  68 CALM      29.83F
SHELDON *      CLEAR     64  64 100 CALM      29.83S
SIOUX CITY     PTCLDY    72  66  81 E6        29.80S
SPENCER        CLEAR     67  64  90 SW3       29.84R
STORM LAKE *   CLEAR     70  68  94 SW5       29.85S
$$

IAZ055>058-069>071-079>083-090>094-200500-
   SOUTHWEST IOWA

CITY           SKY/WX    TMP DP  RH WIND       PRES   REMARKS
ATLANTIC *     CLEAR     68  68 100 CALM      29.81S
AUDUBON *      CLEAR     68  66  94 CALM      29.84S
CLARINDA *     CLEAR     72  70  94 CALM      29.82S
COUNCIL BLFS * CLEAR     73  68  83 SE6       29.80S
CRESTON *      CLEAR     68  66  94 SE5       29.84S
HARLAN  *      CLEAR     68  68 100 CALM      29.84F
LAMONI         CLEAR     75  68  78 SE5       29.83S
RED OAK *      CLEAR     72  68  88 CALM      29.81S
SHENANDOAH *   CLEAR     73  72  94 NE5       29.80S
$$

IAZ047>049-059>061-072>074-084-200500-
   CENTRAL IOWA

CITY           SKY/WX    TMP DP  RH WIND       PRES   REMARKS
AMES           CLEAR     66  65  96 CALM      29.82S
ANKENY *       CLEAR     66  66 100 CALM      29.82S
CHARITON *     CLEAR     72  70  94 SE3       29.83S
DES MOINES     CLEAR     75  66  73 SE3       29.82R
GRINNELL*      CLEAR     68  63  83 CALM      29.84S
KNOXVILLE *    CLEAR     72  66  83 CALM      29.82R
MARSHALLTOWN   CLEAR     69  65  86 SW3       29.82S
PELLA *        CLEAR     70  66  88 CALM      29.84R
PERRY *          N/A     66  64  94 CALM      29.83R
$$

IAZ004>006-015-016-023>025-035-036-200500-
   NORTH CENTRAL IOWA

CITY           SKY/WX    TMP DP  RH WIND       PRES   REMARKS
ALGONA *       CLEAR     70  66  88 SW6       29.83S
CLARION *      CLEAR     66  64  94 S5        29.83R
ESTHERVILLE    CLEAR     66  63  90 CALM      29.83
FORT DODGE *   CLEAR     64  63  94 CALM      29.84R
MASON CITY     PTCLDY    67  64  90 CALM      29.83S
FOREST CITY *  CLEAR     68  68 100 CALM      29.83R
IOWA FALLS *     N/A     66  63  88 SW5       29.84S
$$

IAZ007>011-017>019-026>030-037>042-050>054-066-200500-
   NORTHEAST IOWA

CITY           SKY/WX    TMP DP  RH WIND       PRES   REMARKS
CEDAR RAPIDS   CLEAR     67  65  93 CALM      29.81S
CHARLES CITY * PTCLDY    68  66  94 SW3       29.82S
CLINTON *      CLEAR     66  61  82 W7        29.84R
DECORAH *      CLOUDY    66  64  94 CALM      29.80S
DUBUQUE        CLEAR     68  62  81 W3        29.82R
MONTICELLO *   CLEAR     64  64 100 CALM      29.81S
OELWEIN *      CLEAR     68  64  88 CALM      29.82S
WATERLOO       PTCLDY    71  66  84 SW5       29.80S
$$

IAZ064-065-067-068-078-200500-
   EAST CENTRAL IOWA

CITY           SKY/WX    TMP DP  RH WIND       PRES   REMARKS
DAVENPORT      CLEAR     65  62  90 W7        29.82R
IOWA CITY      CLEAR     70  66  87 CALM      29.83R
MT. PLEASANT * CLEAR     68  64  88 SW3       29.83S
MUSCATINE *    CLEAR     68  64  88 CALM      29.82R
QUAD CITIES    CLEAR     67  64  90 CALM      29.81R
$$

IAZ062-063-075>077-085>089-095>099-200500-
   SOUTHEAST IOWA

CITY           SKY/WX    TMP DP  RH WIND       PRES   REMARKS
BURLINGTON     CLEAR     67  66  97 CALM      29.83R
FAIRFIELD *    CLEAR     66  64  94 CALM      29.83S
FORT MADISON * CLEAR     70  70 100 CALM      29.84R
KEOKUK *       PTCLDY    72  70  94 CALM      29.83R
OSKALOOSA *      N/A     68  64  88 CALM      29.83S
CENTERVILLE *  CLEAR     66  66 100 SE3       29.85S
OTTUMWA        CLEAR     68  65  90 CALM      29.82S
WASHINGTON *   CLEAR     68  66  94 CALM      29.83R
$$

ABBREVIATIONS USED IN REMARKS
   TC - TEMPERATURES IN CELSIUS
  WCI - WIND CHILL INDEX
   HX - HEAT INDEX
  VSB - VISIBILITY
$$




USA.gov is the U.S. government's official web portal to all federal, state and local government web resources and services.